Wind_Speed
16 15 21 19 22 26 21 19 16 15 18 18 19 20 20 23 21 21 19 18 18 19 20 21 22 22 23 23 23 23 23 23 24 25 25 25 23 20 21 20 19 17 14
16 20 20 16 22 22 27 23 21 19 18 16 17 18 17 21 22 20 19 18 18 19 19 20 21 22 22 22 22 23 23 25 25 26 25 25 25 23 22 22 22 20 16
13 15 17 22 22 22 21 22 21 19 16 16 15 14 15 15 17 19 19 19 18 17 16 18 19 20 21 21 21 22 23 24 24 26 27 26 25 24 22 22 24 23 21
11 16 18 24 22 20 19 19 18 16 16 17 16 14 14 14 12 14 15 14 16 15 15 14 14 16 18 19 20 22 23 24 25 25 25 26 25 24 22 21 23 24 26
11 9 15 11 15 15 16 16 15 17 17 15 16 15 13 13 12 10 12 12 12 12 13 13 12 15 16 19 21 21 22 24 26 27 26 24 25 23 22 20 21 23 26
7 12 17 14 15 12 13 15 12 12 13 13 14 13 11 12 13 13 12 9 9 9 10 7 8 8 7 13 15 17 19 24 29 30 29 24 22 23 21 19 19 20 24
6 9 15 16 14 13 16 16 13 6 10 12 13 15 15 15 12 10 6 7 5 5 1 3 7 7 6 8 13 15 18 22 26 36 30 23 20 21 19 19 17 19 21
7 8 10 11 10 12 17 16 14 10 10 10 11 12 12 13 11 10 7 4 2 3 4 5 7 12 14 10 8 16 20 22 28 32 28 19 16 17 17 18 17 17 19
10 9 8 5 10 11 16 15 15 13 12 12 12 11 13 12 8 6 3 4 7 7 7 8 9 13 16 16 10 13 19 24 24 27 25 16 14 13 16 17 16 16 16
9 10 10 9 8 9 10 13 15 18 15 15 12 11 9 8 9 7 7 6 8 10 9 10 14 15 15 8 11 11 17 26 25 20 17 13 12 13 14 15 16 16 16
8 10 8 9 10 4 9 11 14 18 17 17 15 14 9 7 11 11 12 14 15 14 10 13 17 14 12 11 10 17 21 25 18 13 12 13 13 13 14 14 16 17 17
8 9 9 8 10 10 9 10 14 14 15 19 19 17 13 13 13 12 10 12 19 18 16 12 13 6 17 15 14 20 19 14 10 8 12 12 12 12 12 13 15 17 17
6 10 9 10 11 10 10 11 13 14 15 15 16 17 19 16 12 12 13 18 10 10 12 8 7 7 10 4 15 14 11 11 7 9 12 12 10 10 11 11 13 15 17
5 11 10 9 9 10 9 12 12 12 12 16 17 17 14 15 16 14 11 9 15 15 14 15 12 10 10 11 12 7 9 8 6 12 12 11 10 8 8 9 10 12 13
7 9 10 9 10 10 10 10 10 10 13 14 15 18 19 18 17 15 15 11 8 15 18 18 14 13 11 5 6 5 4 5 4 2 2 4 6 7 6 6 7 9 10
6 16 14 12 9 10 10 10 11 10 10 15 13 13 16 18 17 15 13 9 10 12 9 7 6 7 7 4 3 2 1 3 4 4 5 5 4 3 3 3 3 5 8
7 8 8 11 10 11 9 8 9 7 8 10 11 10 11 14 17 16 13 12 13 12 9 9 7 7 7 3 3 6 6 5 8 8 9 8 6 6 7 7 6 7 8
11 11 10 12 12 12 10 8 8 7 7 8 7 7 8 7 8 10 13 13 10 6 4 4 6 7 7 6 6 9 6 7 9 8 7 8 7 7 9 8 8 9 10
14 15 16 15 14 13 11 12 11 9 8 6 7 10 8 8 8 8 9 9 9 9 5 5 8 8 6 5 9 9 9 9 10 10 10 10 9 8 8 8 9 11 10
18 18 19 19 17 12 13 13 13 10 10 9 8 8 7 7 10 10 11 10 9 9 8 7 8 8 6 7 8 8 8 11 11 12 12 11 11 11 9 10 11 13 12
17 19 19 18 17 15 15 15 13 12 14 11 12 10 8 9 8 9 12 12 10 10 8 8 8 9 11 10 8 8 8 10 11 11 12 11 11 10 11 12 10 13 13
19 18 18 19 18 16 15 16 15 15 15 15 16 11 9 8 11 11 11 9 9 9 9 10 11 11 12 11 10 10 10 8 9 10 12 11 10 11 12 13 14 15 17
27 19 18 16 18 19 21 21 19 18 18 16 17 15 12 11 13 13 12 12 12 12 12 13 13 13 14 13 13 14 15 15 14 12 14 11 12 12 11 12 16 16 15
24 30 25 25 26 21 18 20 25 22 20 19 18 18 16 16 16 16 15 15 16 15 15 15 14 15 13 14 16 18 20 23 25 21 17 14 13 17 16 16 17 18 19
25 30 25 26 24 18 21 24 29 24 22 22 20 19 19 20 19 20 18 18 17 17 17 17 18 20 20 21 23 23 22 21 24 23 18 20 14 14 17 18 17 17 18
18 25 25 27 26 26 28 27 28 28 24 21 19 19 20 20 21 22 20 20 20 21 21 21 23 25 28 30 24 18 15 15 15 17 16 17 17 16 16 17 19 20 20
Wind_Direction
114 100 117 113 104 114 109 112 115 123 121 122 120 115 110 106 105 104 100 95 92 86 82 78 74 69 63 57 54 51 46 42 40 37 33 32 28 24 25 25 22 18 9
113 116 138 137 119 119 116 118 118 116 113 114 114 108 108 113 115 111 106 98 91 86 82 79 73 67 61 56 51 48 43 38 36 33 30 28 28 25 25 26 26 24 17
122 133 142 139 127 111 113 116 112 105 112 112 109 112 107 111 116 117 112 108 98 88 79 75 71 67 60 53 46 40 35 30 27 25 25 24 24 25 24 26 29 30 27
139 131 139 133 117 125 121 119 112 113 110 113 107 105 109 113 111 105 105 102 99 93 77 58 55 59 60 49 37 32 27 21 18 14 13 16 18 22 24 29 31 33 36
133 146 139 133 126 123 148 128 129 127 121 111 112 105 115 121 120 113 109 102 92 82 71 59 41 32 35 43 33 22 21 16 9 4 3 6 10 16 23 28 33 37 39
150 143 145 139 154 152 159 167 145 128 124 112 113 115 124 117 128 129 119 95 76 87 82 79 58 48 51 24 27 16 15 10 5 356 353 356 4 11 20 25 33 37 40
156 142 163 169 173 178 166 175 159 160 156 136 119 127 127 132 127 113 107 137 146 118 60 41 17 6 12 4 352 356 16 7 4 357 347 346 0 8 17 24 32 38 41
156 153 146 165 187 187 179 184 179 176 178 140 140 143 137 122 144 143 157 177 214 209 285 338 354 346 340 344 341 355 3 356 352 357 350 344 360 9 19 27 31 38 43
168 173 195 172 196 183 190 196 192 190 200 199 182 174 165 165 196 196 190 245 253 272 287 307 320 312 316 311 331 340 343 348 348 359 353 349 3 19 25 30 35 38 42
196 178 181 187 192 179 192 197 197 205 210 219 215 218 209 215 229 245 275 269 272 296 293 327 322 302 292 342 316 321 333 338 344 359 360 3 25 32 30 31 36 39 40
203 196 201 189 192 178 192 200 205 208 217 228 228 238 232 228 249 233 257 275 279 294 315 318 332 250 278 289 348 344 333 329 344 0 30 28 37 33 29 32 33 39 40
222 221 196 184 201 217 222 201 199 198 210 227 241 241 242 240 250 243 247 259 261 270 272 278 310 331 296 272 295 326 332 4 14 11 43 40 38 33 32 31 30 32 36
235 230 222 198 199 205 224 221 214 226 223 220 233 245 253 255 262 273 265 259 273 240 258 274 296 23 62 270 307 338 21 34 26 31 40 38 33 31 31 32 29 26 25
241 219 229 224 219 200 197 212 215 216 226 233 236 249 256 258 261 260 270 259 274 263 278 289 274 284 294 314 332 355 43 45 45 42 36 31 33 29 28 31 29 26 23
259 229 224 237 237 220 205 211 216 221 227 229 233 242 255 267 267 276 281 283 307 302 300 284 293 295 303 319 334 360 61 71 41 351 58 56 32 36 32 39 41 34 26
281 207 206 229 240 234 223 214 219 220 236 230 223 237 241 248 261 273 279 255 305 298 307 335 305 283 311 343 262 333 337 97 316 286 349 320 332 311 319 350 1 14 12
254 226 230 220 219 218 213 200 208 204 230 221 224 224 226 237 243 252 256 265 283 295 310 310 296 299 309 311 279 310 322 303 320 325 331 332 312 304 308 318 328 338 347
245 241 228 216 214 216 218 213 221 229 226 225 229 214 213 216 231 242 249 254 261 283 272 267 281 291 294 305 248 279 266 291 293 301 332 333 316 317 301 293 300 303 320
234 234 227 228 224 219 219 228 226 224 223 223 246 228 220 222 222 223 229 238 253 259 265 268 282 298 306 295 281 278 284 305 303 312 316 317 315 310 295 290 304 304 329
235 231 225 228 232 234 238 237 234 230 236 234 237 236 223 230 249 238 237 244 248 259 268 265 273 279 285 275 279 277 276 296 296 306 301 309 311 313 306 302 309 315 327
228 234 231 235 242 241 242 240 241 241 245 243 250 244 243 241 241 242 240 245 254 261 265 262 263 267 271 277 288 296 300 293 302 305 302 316 310 299 306 301 310 300 300
217 223 231 236 242 247 242 243 246 241 245 247 253 248 244 239 236 242 242 245 245 253 259 265 267 271 278 286 293 303 306 309 301 298 298 305 309 298 300 299 301 297 310
241 222 231 236 243 240 242 246 249 250 249 246 250 247 247 238 241 243 243 246 253 257 258 260 268 277 284 288 288 296 307 312 313 307 293 289 281 285 291 291 297 298 301
267 234 234 232 233 247 244 257 256 252 254 247 242 250 252 247 248 249 252 256 263 267 273 277 276 273 276 282 288 292 295 300 295 288 290 291 274 279 279 279 282 286 290
261 251 234 232 235 255 266 265 248 247 248 250 251 252 254 257 257 258 262 265 269 275 279 279 277 278 281 286 292 295 295 294 288 289 279 279 272 268 273 276 276 279 282
236 246 248 254 256 265 267 258 260 257 247 240 248 259 262 257 254 257 259 264 271 274 278 279 282 282 286 291 291 293 291 292 286 289 290 276 274 264 262 270 273 274 277
Height
3230 3229 3230 3231 3231 3232 3233 3234 3235 3237 3239 3239 3240 3240 3240 3239 3241 3243 3244 3245 3245 3243 3243 3241 3239 3238 3236 3234 3232 3230 3227 3223 3220 3215 3211 3208 3203 3198 3193 3188 3183 3179 3175
3232 3232 3233 3233 3232 3233 3233 3236 3237 3238 3240 3241 3243 3243 3244 3243 3244 3246 3247 3248 3248 3247 3246 3244 3242 3241 3240 3238 3236 3233 3230 3226 3223 3219 3215 3210 3206 3200 3195 3189 3184 3179 3174
3234 3234 3234 3235 3237 3237 3239 3239 3239 3239 3243 3244 3245 3246 3247 3249 3249 3249 3250 3250 3250 3250 3250 3248 3246 3244 3242 3241 3238 3236 3233 3229 3225 3222 3218 3213 3208 3203 3197 3191 3186 3180 3176
3236 3235 3237 3240 3239 3240 3241 3243 3244 3245 3246 3246 3247 3249 3250 3252 3253 3255 3254 3253 3252 3252 3251 3251 3249 3246 3244 3243 3241 3239 3235 3231 3228 3224 3220 3215 3210 3206 3199 3193 3187 3183 3177
3238 3239 3240 3241 3243 3243 3244 3246 3246 3247 3248 3249 3249 3251 3252 3253 3255 3256 3256 3255 3255 3254 3253 3252 3251 3250 3248 3244 3242 3240 3237 3233 3230 3226 3221 3216 3212 3208 3202 3195 3190 3185 3180
3240 3241 3243 3243 3243 3246 3247 3248 3248 3248 3249 3249 3251 3252 3254 3254 3255 3257 3256 3256 3255 3252 3249 3249 3249 3247 3245 3244 3242 3239 3236 3233 3229 3227 3223 3218 3213 3209 3205 3199 3193 3188 3183
3240 3241 3244 3246 3247 3248 3247 3249 3249 3251 3251 3251 3251 3252 3253 3254 3256 3256 3250 3252 3252 3251 3251 3250 3250 3248 3246 3245 3242 3241 3236 3233 3228 3225 3221 3218 3214 3210 3206 3202 3196 3191 3187
3240 3241 3243 3245 3246 3249 3248 3249 3250 3251 3252 3253 3252 3253 3255 3256 3252 3252 3252 3252 3252 3252 3252 3251 3251 3250 3249 3247 3245 3243 3238 3233 3229 3222 3219 3217 3214 3210 3207 3204 3199 3195 3191
3241 3241 3243 3244 3246 3247 3248 3249 3250 3252 3252 3252 3253 3253 3253 3253 3253 3252 3252 3252 3251 3251 3251 3251 3252 3249 3248 3248 3244 3241 3238 3234 3229 3222 3219 3217 3214 3211 3208 3206 3202 3198 3194
3240 3242 3243 3244 3245 3246 3247 3249 3250 3251 3252 3251 3253 3253 3254 3255 3254 3253 3252 3251 3251 3251 3251 3252 3251 3248 3247 3245 3244 3241 3237 3233 3228 3223 3219 3217 3214 3212 3210 3207 3204 3201 3198
3240 3240 3241 3242 3244 3245 3247 3248 3250 3250 3250 3250 3251 3251 3252 3253 3254 3253 3252 3251 3251 3252 3251 3250 3248 3246 3245 3245 3241 3238 3234 3231 3227 3224 3219 3218 3216 3214 3211 3209 3206 3203 3200
3238 3240 3240 3241 3242 3244 3246 3247 3249 3249 3248 3249 3249 3250 3250 3252 3251 3252 3251 3250 3249 3249 3248 3248 3247 3244 3240 3242 3240 3237 3233 3227 3227 3225 3220 3219 3217 3215 3213 3210 3208 3205 3202
3238 3240 3240 3240 3242 3243 3244 3245 3246 3247 3247 3248 3246 3247 3248 3249 3249 3249 3249 3247 3246 3246 3247 3246 3246 3243 3241 3241 3238 3235 3230 3228 3228 3226 3222 3220 3218 3215 3214 3212 3209 3207 3204
3237 3238 3239 3240 3241 3241 3242 3243 3243 3245 3245 3245 3245 3244 3247 3247 3247 3247 3246 3247 3246 3244 3243 3242 3244 3243 3241 3238 3235 3233 3230 3229 3229 3227 3224 3221 3218 3216 3213 3211 3210 3207 3205
3236 3236 3236 3238 3239 3240 3240 3241 3242 3243 3244 3244 3244 3244 3243 3244 3244 3243 3243 3242 3241 3240 3240 3240 3239 3238 3236 3236 3235 3233 3230 3228 3226 3225 3222 3219 3218 3215 3213 3211 3209 3207 3204
3232 3232 3234 3236 3237 3238 3239 3239 3240 3241 3241 3241 3242 3242 3243 3242 3242 3242 3241 3241 3241 3240 3239 3237 3235 3234 3233 3233 3232 3231 3230 3229 3226 3225 3223 3221 3218 3214 3211 3210 3209 3207 3204
3231 3231 3232 3235 3236 3237 3237 3237 3238 3239 3239 3240 3240 3240 3240 3240 3240 3241 3241 3241 3240 3239 3238 3237 3234 3233 3232 3232 3232 3232 3230 3228 3227 3225 3223 3221 3218 3215 3213 3210 3209 3207 3204
3229 3229 3231 3233 3235 3236 3236 3236 3236 3237 3236 3237 3238 3238 3238 3238 3238 3238 3238 3239 3238 3238 3237 3235 3234 3233 3232 3231 3231 3230 3229 3228 3226 3223 3221 3220 3217 3215 3213 3210 3209 3207 3205
3227 3229 3230 3232 3233 3233 3233 3233 3234 3234 3234 3235 3236 3235 3236 3236 3236 3235 3236 3236 3236 3235 3234 3233 3231 3231 3231 3231 3230 3229 3228 3226 3224 3223 3220 3218 3216 3213 3210 3209 3209 3207 3204
3224 3225 3227 3228 3228 3229 3231 3232 3231 3232 3232 3233 3234 3233 3234 3234 3235 3234 3234 3234 3233 3233 3232 3231 3230 3230 3230 3230 3229 3228 3227 3225 3224 3222 3219 3217 3214 3212 3210 3209 3208 3207 3203
3218 3221 3222 3222 3223 3226 3228 3229 3230 3229 3230 3230 3230 3231 3231 3231 3231 3231 3232 3232 3232 3231 3230 3229 3228 3227 3226 3226 3225 3225 3225 3224 3222 3219 3217 3215 3212 3210 3209 3208 3207 3204 3200
3211 3213 3215 3218 3220 3222 3224 3224 3225 3225 3226 3227 3226 3227 3228 3228 3227 3227 3228 3228 3229 3228 3228 3227 3226 3225 3224 3224 3223 3221 3220 3220 3219 3217 3214 3212 3209 3208 3207 3205 3203 3201 3199
3204 3207 3211 3213 3216 3217 3218 3219 3221 3222 3223 3223 3223 3223 3223 3223 3223 3223 3224 3224 3224 3224 3223 3222 3221 3222 3221 3220 3219 3218 3216 3214 3214 3213 3211 3209 3207 3205 3204 3202 3200 3198 3195
3199 3199 3203 3206 3208 3211 3213 3215 3215 3216 3217 3218 3218 3218 3218 3219 3219 3219 3219 3219 3218 3218 3218 3217 3217 3216 3215 3214 3213 3213 3212 3209 3206 3206 3206 3206 3205 3202 3200 3199 3197 3194 3192
3193 3194 3196 3200 3203 3204 3207 3208 3209 3210 3210 3211 3213 3213 3213 3213 3214 3214 3214 3214 3213 3212 3212 3212 3211 3210 3209 3208 3207 3205 3204 3203 3199 3197 3198 3199 3199 3198 3195 3193 3191 3189 3188
3187 3190 3191 3193 3195 3198 3200 3200 3201 3201 3202 3204 3205 3206 3207 3208 3208 3209 3209 3209 3208 3206 3206 3206 3205 3204 3202 3200 3199 3198 3198 3196 3195 3192 3192 3192 3191 3192 3191 3188 3185 3183 3183